Location: Chagrin Falls Park
(41.4139°N, 81.3865°W)
Time: 20:44:56
(UTC+00:00)

STARLINK-2727 - Visible Passes

Search period start: 05 December 2021 00:00
Search period end: 15 December 2021 00:00
Orbit: 546 x 549 km, 53.1° (Epoch: 05 December)

Date Brightness Start Highest point End Pass type
(mag) Time Alt. Az. Time Alt. Az. Time Alt. Az.
05 Dec 5.6 23:47:00 10° NW 23:49:37 16° N 23:49:38 16° N visible
06 Dec 5.6 23:40:52 10° NW 23:43:31 16° N 23:43:35 16° N visible
07 Dec 5.5 23:34:40 10° NW 23:37:23 17° N 23:37:34 17° N visible
08 Dec 5.4 23:28:24 10° NNW 23:31:16 18° N 23:31:33 18° NNE visible
09 Dec 5.2 23:22:04 10° NNW 23:25:05 19° NNE 23:25:35 19° NNE visible
10 Dec 5.1 23:15:41 10° NW 23:18:53 21° NNE 23:19:40 20° NNE visible
11 Dec 6.5 00:54:51 10° NW 00:55:16 13° NW 00:55:16 13° NW visible
11 Dec 4.9 23:09:16 10° NW 23:12:40 24° NNE 23:13:50 21° NE visible
12 Dec 6.2 00:48:28 10° NW 00:49:27 17° NW 00:49:27 17° NW visible
12 Dec 4.7 23:02:50 10° NW 23:06:24 27° NNE 23:08:07 20° ENE visible
13 Dec 5.8 00:42:06 10° WNW 00:43:43 23° WNW 00:43:43 23° WNW visible
13 Dec 4.5 22:56:22 10° NW 23:00:06 32° NNE 23:02:32 18° E visible
14 Dec 5.3 00:35:46 10° WNW 00:38:11 31° W 00:38:11 31° W visible
14 Dec 4.2 22:49:53 10° NW 22:53:46 38° NNE 22:57:12 13° E visible
